Location: Recife
(8.0585°S, 34.8848°W)
Time: 20:04:39
(UTC-03:00)

A-11 Canister half - Pass Details

Date: 14 April 2026
Orbit: 1515 x 1684 km, 47.2° (Epoch: 16 May)

Event Time Altitude Azimuth Distance (km) Brightness Sun altitude
Rises 15:04:13 0° 310° (NW) 4,905 12.6 31.4°
Reaches altitude 10° 15:07:25 10° 307° (NW) 3,929 12.4 30.6°
Maximum altitude 15:17:21 60° 229° (SW) 1,877 10.2 28.3°
Drops below altitude 10° 15:27:19 10° 150° (SSE) 3,923 10.8 25.9°
Sets 15:30:32 0° 146° (SE) 4,897 11.2 25.1°
